TimeCST,TemperatureF,Dew PointF,Humidity,Sea Level PressureIn,VisibilityMPH,Wind Direction,Wind SpeedMPH,Gust SpeedMPH,PrecipitationIn,Events,Conditions,WindDirDegrees,DateUTC
12:53 AM,19.9,14.0,78,29.94,10.0,WNW,5.8,-,N/A,,Overcast,300,2013-12-21 06:53:00
1:53 AM,19.9,14.0,78,29.86,10.0,NNW,8.1,-,N/A,,Overcast,340,2013-12-21 07:53:00
2:53 AM,19.9,14.0,78,29.85,10.0,North,6.9,-,N/A,,Overcast,360,2013-12-21 08:53:00
3:37 AM,19.9,14.0,78,29.83,10.0,North,5.8,-,N/A,,Scattered Clouds,360,2013-12-21 09:37:00
3:53 AM,19.9,14.0,78,29.85,10.0,North,6.9,-,N/A,,Partly Cloudy,360,2013-12-21 09:53:00
4:05 AM,19.9,14.0,78,29.80,10.0,North,5.8,-,N/A,,Mostly Cloudy,10,2013-12-21 10:05:00
4:53 AM,19.9,14.0,78,29.89,10.0,North,5.8,-,N/A,,Overcast,350,2013-12-21 10:53:00
5:53 AM,19.9,15.1,81,29.88,10.0,ENE,5.8,-,N/A,,Overcast,70,2013-12-21 11:53:00
6:53 AM,19.9,15.1,81,29.89,10.0,Calm,Calm,-,N/A,,Overcast,0,2013-12-21 12:53:00
7:53 AM,21.0,15.1,78,29.88,10.0,North,3.5,-,N/A,,Overcast,10,2013-12-21 13:53:00
8:53 AM,21.0,16.0,81,29.87,8.0,NNE,5.8,-,N/A,,Overcast,20,2013-12-21 14:53:00
9:17 AM,21.9,16.0,78,29.82,9.0,NNE,8.1,-,N/A,,Overcast,30,2013-12-21 15:17:00
9:30 AM,21.9,16.0,78,29.82,8.0,NNE,8.1,-,N/A,,Overcast,20,2013-12-21 15:30:00
9:53 AM,21.9,16.0,78,29.86,8.0,NNE,8.1,-,N/A,,Overcast,20,2013-12-21 15:53:00
10:53 AM,23.0,17.1,78,29.88,7.0,NNE,9.2,-,N/A,,Overcast,20,2013-12-21 16:53:00
11:53 AM,24.1,17.1,75,29.86,8.0,NNE,9.2,-,N/A,,Overcast,30,2013-12-21 17:53:00
12:53 PM,25.0,18.0,75,29.81,10.0,NE,10.4,-,N/A,,Overcast,40,2013-12-21 18:53:00
1:53 PM,26.1,19.0,75,29.80,9.0,NNE,8.1,-,N/A,,Overcast,30,2013-12-21 19:53:00
2:40 PM,26.1,19.0,75,29.75,10.0,North,9.2,-,N/A,,Overcast,10,2013-12-21 20:40:00
2:53 PM,26.1,19.9,78,29.78,10.0,NE,11.5,-,N/A,,Overcast,40,2013-12-21 20:53:00
3:53 PM,26.1,19.9,78,29.79,10.0,NNE,11.5,-,N/A,,Overcast,30,2013-12-21 21:53:00
4:50 PM,26.6,21.2,80,29.75,7.0,NNE,10.4,-,0.00,,Overcast,20,2013-12-21 22:50:00
4:53 PM,26.1,21.0,81,29.79,8.0,NNE,9.2,-,0.00,,Overcast,20,2013-12-21 22:53:00
5:51 PM,26.6,21.2,80,29.74,4.0,NNE,15.0,20.7,0.00,Snow,Light Snow,20,2013-12-21 23:51:00
5:53 PM,26.1,21.0,81,29.78,4.0,NNE,13.8,20.7,0.00,Snow,Light Snow,20,2013-12-21 23:53:00
6:19 PM,25.0,21.0,85,29.73,2.5,NNE,11.5,-,0.00,Snow,Light Snow,20,2013-12-22 00:19:00
6:33 PM,25.0,21.0,85,29.72,1.8,North,12.7,-,0.00,Snow,Light Snow,10,2013-12-22 00:33:00
6:53 PM,25.0,21.9,88,29.76,1.5,NNE,13.8,20.7,0.00,Snow,Light Snow,20,2013-12-22 00:53:00
7:22 PM,25.0,21.9,88,29.71,1.2,North,13.8,21.9,0.00,Snow,Light Snow,10,2013-12-22 01:22:00
7:53 PM,24.1,21.0,88,29.78,1.0,North,11.5,-,0.00,Snow,Light Snow,350,2013-12-22 01:53:00
8:37 PM,23.0,19.9,88,29.75,0.8,North,12.7,21.9,0.00,Snow,Light Snow,360,2013-12-22 02:37:00
8:53 PM,23.0,19.9,88,29.78,0.5,North,11.5,-,0.00,Fog-Snow,Snow,10,2013-12-22 02:53:00
9:53 PM,23.0,19.9,88,29.79,0.8,North,9.2,-,0.00,Snow,Light Snow,10,2013-12-22 03:53:00
10:53 PM,21.9,19.9,92,29.83,0.8,NNW,5.8,-,0.00,Snow,Light Snow,340,2013-12-22 04:53:00
11:53 PM,21.9,19.0,89,29.84,0.5,NNW,11.5,-,0.00,Fog-Snow,Snow,340,2013-12-22 05:53:00